Regional Weather Roundup
Issued by NWS

Home | Current Version | Previous Version | Text Only | Print | Product List | Glossary Off
Versions: 1 2 3 4 5 6 7 8 9 10 11 12 13 14 15 16 17 18 19 20 21 22 23 24 25 26 27 28

000
ASUS45 KPSR 191610
RWRAZ

ARIZONA HOURLY REGIONAL WEATHER ROUNDUP
NATIONAL WEATHER SERVICE PHOENIX AZ
900 AM MST THU JAN 19 2017

NOTE: FAIR INDICATES FEW OR NO CLOUDS BELOW 12,000 FEET WITH NO
SIGNIFICANT WEATHER AND/OR OBSTRUCTIONS TO VISIBILITY.

AZZ001>003-036-191700-
NORTHWEST ARIZONA

CITY           SKY/WX    TMP DP  RH WIND       PRES   REMARKS
BULLHEAD CITY  LGT RAIN  50  45  81 SE6       29.96R
KINGMAN        CLOUDY    42  36  79 SE6       29.92R
$$

AZZ004>008-015-016-018-191700-
NORTH CENTRAL ARIZONA

CITY           SKY/WX    TMP DP  RH WIND       PRES   REMARKS
GRAND CANYON   LGT SNOW  31  30  96 SW13      29.93R VSB 3/4 WCI  21
WILLIAMS       CLOUDY    34  28  80 S9G16     29.93R HAZE    WCI  26
PRESCOTT       LGT SNOW  37  32  82 S9        29.97R WCI  30
FLAGSTAFF      LGT SNOW  29  28  96 SW15      29.94S VSB 1   WCI  18
PAYSON         CLOUDY    39  34  81 CALM      30.03S
PAGE           CLOUDY    38  30  73 SE3       29.88R
$$

AZZ009>014-017-191700-
NORTHEAST ARIZONA

CITY           SKY/WX    TMP DP  RH WIND       PRES   REMARKS
WINSLOW        CLOUDY    38  32  79 SE8       29.94S WCI  32
SAINT JOHNS    PTSUNNY   33  30  88 SE5       29.96S WCI  29
SHOW LOW       PTSUNNY   34  28  80 S18G24    29.97F WCI  23
$$

AZZ023-191700-
GREATER PHOENIX AREA

CITY           SKY/WX    TMP DP  RH WIND       PRES   REMARKS
PHOENIX        CLOUDY    50  42  74 E7        30.00R
BUCKEYE        CLOUDY    48  48 100 N7        30.02R
GLENDALE       CLOUDY    48  48 100 CALM      30.03R FOG
LUKE AFB       LGT RAIN  48  47  95 CALM      30.01R FOG
DEER VALLEY    LGT RAIN  50  42  74 E8        30.00S
SCOTTSDALE     CLOUDY    51  41  68 SE5       30.02R
MESA-FALCON    PTSUNNY  N/A N/A N/A E12       29.98S
MESA-GATEWAY   CLOUDY    48  41  76 E7        30.02R
CHANDLER       CLOUDY    48  43  81 E5        30.02R
$$

AZZ027-028-191700-
SOUTHWEST MARICOPA COUNTY AND PINAL COUNTY

CITY           SKY/WX    TMP DP  RH WIND       PRES   REMARKS
CASA GRANDE    CLOUDY    48  40  73 CALM      30.02S
$$

AZZ503-504-507>509-191700-
SOUTHEAST ARIZONA

CITY           SKY/WX    TMP DP  RH WIND       PRES   REMARKS
TUCSON         CLOUDY    49  37  63 SE12      30.04S
DAVIS-MONTHAN  CLOUDY    47  37  68 SE8       30.03S
RYAN FIELD     MOSUNNY   45  39  81 SE8       30.04F
NOGALES        CLOUDY    39  33  79 VRB3      30.06R
SIERRA VISTA   CLOUDY    41  33  73 CALM      30.05S
DOUGLAS        PTSUNNY   41  36  82 SE6       30.06S
SAFFORD        PTSUNNY   44  38  79 E5        30.01S
$$

AZZ020-021-025-026-031-191700-
SOUTHWEST ARIZONA

CITY           SKY/WX    TMP DP  RH WIND       PRES   REMARKS
YUMA           CLOUDY    55  44  66 E7        29.97S
$$

CAZ031-033-041-043-047-048-061-191700-
SOUTHERN CALIFORNIA

CITY           SKY/WX    TMP DP  RH WIND       PRES   REMARKS
DOWNTOWN L.A.  CLOUDY    54  51  90 CALM      29.94S
L.A. AIRPORT   PTSUNNY   55  53  93 VRB3      29.94R
SAN DIEGO      LGT RAIN  57  54  89 SW15      30.01R FOG
BURBANK        CLOUDY    51  49  92 SE6       29.93R
ONTARIO        LGT RAIN  48  48 100 N5        29.93R FOG
RIVERSIDE      LGT RAIN  50  50 100 CALM      29.93R
PALM SPRINGS   RAIN      51  50  96 SW5       29.96R FOG
EL CENTRO NAS  PTSUNNY   53  49  86 E9        29.95F
IMPERIAL       SUNNY     52  48  86 SE12      29.94F
BLYTHE         PTSUNNY   53  48  83 S6        29.97R
NEEDLES        LGT RAIN  53  44  71 E3        29.93S
$$

NVZ020-UTZ003-191700-
SOUTHERN NEVADA-UTAH

CITY           SKY/WX    TMP DP  RH WIND       PRES   REMARKS
LAS VEGAS      CLOUDY    50  38  63 S10       29.84S
SALT LAKE CITY SNOW      27  25  92 NW9       29.81R VSB 1/2 WCI  18
$$

NMZ009-TXZ055-191700-
NEW MEXICO-WEST TEXAS

CITY           SKY/WX    TMP DP  RH WIND       PRES   REMARKS
ALBUQUERQUE    MOSUNNY   35  30  82 S3        29.95R
EL PASO        MOSUNNY   51  30  44 W16G28    29.98R
$$


........................KEY........................
SKY/WX - SKY CONDITION/WEATHER
TMP    - TEMPERATURE IN FAHRENHEIT
DP     - DEW POINT IN FAHRENHEIT
RH     - RELATIVE HUMIDITY IN PERCENT
WIND   - DIRECTION AND SPEED IN MILES PER HOUR (MPH)
VRB    - VARIABLE WIND DIRECTION
PRES   - MEAN SEA LEVEL PRESSURE IN INCHES OF MERCURY
         F - FALLING PRESSURE   R - RISING PRESSURE
         S - STEADY PRESSURE
VSB    - VISIBILITY IN MILES
HX     - HEAT INDEX IN FAHRENHEIT
WCI    - WIND CHILL INDEX IN FAHRENHEIT
TC     - TEMPERATURE IN CELSIUS WHICH IS ALSO KNOWN AS
         TEMPERATURE IN CENTIGRADE
AFB    - AIR FORCE BASE
         LUKE AFB IS LUKE AIR FORCE BASE
         DAVIS-MONTHAN IS DAVIS-MONTHAN AIR FORCE BASE
NAS    - NAVAL AIR STATION
         EL CENTRO NAS IS EL CENTRO NAVAL AIR STATION
N/A    - NOT AVAILABLE





USA.gov is the U.S. government's official web portal to all federal, state and local government web resources and services.